EN

Hourly Weather Luhy

Today, 27 November, Friday

Time Temperature Precipitation Wind Pressure Humidity
00:00 +4°C° 0 mm 1 mps 717 mmHg 65%
01:00 +4°C° 0 mm 1 mps 717 mmHg 63%
02:00 +4°C° 0 mm 1 mps 717 mmHg 60%
03:00 +4°C° 0 mm 1 mps 717 mmHg 60%
04:00 +4°C° 0 mm 1 mps 716 mmHg 59%
05:00 +5°C° 0 mm 1 mps 717 mmHg 58%
06:00 +5°C° 0 mm 1 mps 716 mmHg 59%
07:00 +5°C° 0 mm 1 mps 717 mmHg 61%
08:00 +4°C° 0 mm 1 mps 717 mmHg 63%
09:00 +5°C° 0 mm 1 mps 717 mmHg 64%
10:00 +5°C° 0 mm 2 mps 717 mmHg 69%
11:00 +6°C° 0 mm 2 mps 717 mmHg 78%
12:00 +7°C° 0 mm 3 mps 718 mmHg 76%
13:00 +6°C° 0 mm 4 mps 717 mmHg 74%
14:00 +6°C° 0 mm 4 mps 717 mmHg 75%
15:00 +7°C° 0 mm 3 mps 717 mmHg 78%
16:00 +5°C° 0 mm 3 mps 717 mmHg 82%
17:00 +4°C° 0 mm 3 mps 717 mmHg 85%
18:00 +5°C° 0 mm 2 mps 717 mmHg 88%
19:00 +4°C° 0 mm 2 mps 717 mmHg 91%
20:00 +4°C° 0 mm 2 mps 717 mmHg 94%
21:00 +4°C° 0 mm 2 mps 717 mmHg 93%
22:00 +4°C° 0 mm 2 mps 717 mmHg 95%
23:00 +4°C° 0 mm 2 mps 717 mmHg 96%

Tomorrow, 28 November, Saturday

Time Temperature Precipitation Wind Pressure Humidity
00:00 +3°C° 0.1 mm 2 mps 717 mmHg 100%
01:00 +3°C° 0.2 mm 2 mps 716 mmHg 100%
02:00 +3°C° 0.1 mm 2 mps 716 mmHg 100%
03:00 +4°C° 0.1 mm 1 mps 716 mmHg 100%
04:00 +3°C° 0.1 mm 1 mps 716 mmHg 100%
05:00 +3°C° 0.1 mm 1 mps 716 mmHg 100%
06:00 +3°C° 0 mm 1 mps 716 mmHg 100%
07:00 +2°C° 0 mm 1 mps 716 mmHg 100%
08:00 +2°C° 0 mm 1 mps 716 mmHg 100%
09:00 +1°C° 0 mm 0 mps 715 mmHg 100%
10:00 +1°C° 0 mm 0 mps 715 mmHg 100%
11:00 +3°C° 0 mm 1 mps 715 mmHg 100%
12:00 +3°C° 0 mm 1 mps 715 mmHg 95%
13:00 +3°C° 0 mm 2 mps 715 mmHg 90%
14:00 +2°C° 0.2 mm 2 mps 715 mmHg 94%
15:00 +1°C° 0.4 mm 3 mps 715 mmHg 100%
16:00 +1°C° 0.8 mm 2 mps 715 mmHg 100%
17:00 -1°C° 0.8 mm 2 mps 715 mmHg 100%
18:00 -1°C° 0.9 mm 2 mps 715 mmHg 100%
19:00 +1°C° 0.1 mm 1 mps 715 mmHg 100%
20:00 +1°C° 0.1 mm 1 mps 715 mmHg 100%
21:00 0°C° 0 mm 1 mps 715 mmHg 100%
22:00 0°C° 0 mm 1 mps 715 mmHg 100%
23:00 -2°C° 0.3 mm 2 mps 715 mmHg 100%

Day after tomorrow, 29 November, Sunday

Time Temperature Precipitation Wind Pressure Humidity
00:00 -2°C° 0.3 mm 2 mps 715 mmHg 100%
01:00 -2°C° 0 mm 2 mps 715 mmHg 100%
02:00 -3°C° 0 mm 2 mps 715 mmHg 100%
03:00 -4°C° 0.4 mm 3 mps 715 mmHg 100%
04:00 -5°C° 0.4 mm 3 mps 715 mmHg 100%
05:00 -4°C° 0 mm 2 mps 715 mmHg 100%
06:00 -2°C° 0 mm 1 mps 714 mmHg 100%
07:00 -2°C° 0 mm 1 mps 715 mmHg 100%
08:00 -3°C° 0 mm 0 mps 715 mmHg 100%
09:00 -3°C° 0 mm 0 mps 715 mmHg 100%
10:00 -3°C° 0 mm 0 mps 715 mmHg 100%
11:00 -2°C° 0 mm 1 mps 715 mmHg 99%
12:00 -1°C° 0 mm 1 mps 715 mmHg 96%
13:00 -1°C° 0 mm 1 mps 715 mmHg 97%
14:00 -1°C° 0 mm 1 mps 715 mmHg 99%
15:00 -2°C° 0.1 mm 0 mps 715 mmHg 100%
16:00 -1°C° 0.1 mm 1 mps 715 mmHg 100%
17:00 -2°C° 0 mm 0 mps 715 mmHg 100%
18:00 -1°C° 0 mm 1 mps 715 mmHg 100%
19:00 -2°C° 0 mm 1 mps 715 mmHg 98%
20:00 -1°C° 0 mm 1 mps 715 mmHg 93%
21:00 -1°C° 0 mm 1 mps 716 mmHg 90%
22:00 -1°C° 0 mm 1 mps 716 mmHg 84%
23:00 -1°C° 0 mm 1 mps 716 mmHg 82%

30 November, Monday

Time Temperature Precipitation Wind Pressure Humidity
00:00 -1°C° 0 mm 1 mps 717 mmHg 80%
01:00 -1°C° 0 mm 1 mps 717 mmHg 80%
02:00 -1°C° 0 mm 1 mps 717 mmHg 81%
03:00 -2°C° 0 mm 1 mps 717 mmHg 85%
04:00 -2°C° 0 mm 1 mps 717 mmHg 88%
05:00 -2°C° 0 mm 1 mps 717 mmHg 91%
06:00 -3°C° 0 mm 1 mps 717 mmHg 93%
07:00 -3°C° 0 mm 1 mps 718 mmHg 100%
08:00 -3°C° 0 mm 1 mps 718 mmHg 100%
09:00 -3°C° 0 mm 1 mps 719 mmHg 100%
10:00 -4°C° 0 mm 0 mps 719 mmHg 100%
11:00 -3°C° 0 mm 0 mps 719 mmHg 100%
12:00 -2°C° 0 mm 1 mps 720 mmHg 100%
13:00 -2°C° 0 mm 1 mps 720 mmHg 100%
14:00 -2°C° 0 mm 1 mps 720 mmHg 100%
15:00 -2°C° 0 mm 1 mps 720 mmHg 100%
16:00 -3°C° 0 mm 0 mps 720 mmHg 100%
17:00 -3°C° 0 mm 0 mps 721 mmHg 100%
18:00 -2°C° 0.1 mm 1 mps 721 mmHg 100%
19:00 -2°C° 0.1 mm 1 mps 721 mmHg 100%
20:00 -4°C° 0.1 mm 0 mps 721 mmHg 100%
21:00 -3°C° 0 mm 1 mps 722 mmHg 100%
22:00 -3°C° 0 mm 1 mps 722 mmHg 100%
23:00 -3°C° 0 mm 1 mps 722 mmHg 100%

1 December, Tuesday

Time Temperature Precipitation Wind Pressure Humidity
00:00 -3°C° 0 mm 1 mps 722 mmHg 100%
01:00 -4°C° 0 mm 0 mps 722 mmHg 100%
02:00 -4°C° 0 mm 0 mps 722 mmHg 100%
03:00 -4°C° 0 mm 0 mps 721 mmHg 100%
04:00 -4°C° 0 mm 0 mps 721 mmHg 100%
05:00 -5°C° 0 mm 0 mps 721 mmHg 100%
06:00 -5°C° 0 mm 0 mps 721 mmHg 100%
07:00 -5°C° 0 mm 0 mps 721 mmHg 100%
08:00 -5°C° 0 mm 0 mps 721 mmHg 100%
09:00 -4°C° 0.1 mm 0 mps 721 mmHg 100%
10:00 -4°C° 0.2 mm 0 mps 722 mmHg 100%
11:00 -3°C° 0.1 mm 0 mps 721 mmHg 100%
12:00 -2°C° 0 mm 1 mps 721 mmHg 100%
13:00 -1°C° 0 mm 1 mps 721 mmHg 100%
14:00 -1°C° 0 mm 1 mps 721 mmHg 100%
15:00 -1°C° 0 mm 1 mps 720 mmHg 100%
16:00 -1°C° 0 mm 1 mps 720 mmHg 100%
17:00 -1°C° 0.2 mm 1 mps 720 mmHg 100%
18:00 -2°C° 0.2 mm 0 mps 720 mmHg 100%
19:00 -2°C° 0.2 mm 0 mps 720 mmHg 100%
20:00 -2°C° 0.2 mm 0 mps 720 mmHg 100%
21:00 -1°C° 0.1 mm 1 mps 720 mmHg 100%
22:00 -1°C° 0.1 mm 1 mps 720 mmHg 100%
23:00 -1°C° 0 mm 1 mps 720 mmHg 100%

2 December, Wednesday

Time Temperature Precipitation Wind Pressure Humidity
00:00 -2°C° 0 mm 0 mps 720 mmHg 100%
01:00 -2°C° 0 mm 0 mps 719 mmHg 100%
02:00 -2°C° 0 mm 0 mps 719 mmHg 100%
03:00 -2°C° 0 mm 0 mps 719 mmHg 100%
04:00 -3°C° 0 mm 0 mps 719 mmHg 100%
05:00 -2°C° 0 mm 0 mps 719 mmHg 100%
06:00 -2°C° 0 mm 0 mps 719 mmHg 100%
07:00 -2°C° 0.1 mm 0 mps 719 mmHg 100%
08:00 -2°C° 0.4 mm 0 mps 719 mmHg 100%
09:00 -1°C° 0.5 mm 1 mps 719 mmHg 100%
10:00 0°C° 0.2 mm 1 mps 719 mmHg 100%
11:00 0°C° 0.1 mm 1 mps 719 mmHg 100%
12:00 -1°C° 0 mm 2 mps 719 mmHg 100%
13:00 -1°C° 0 mm 2 mps 718 mmHg 100%
14:00 -1°C° 0 mm 2 mps 718 mmHg 100%
15:00 -1°C° 0 mm 2 mps 718 mmHg 100%
16:00 -2°C° 0 mm 2 mps 718 mmHg 100%
17:00 -2°C° 0 mm 3 mps 718 mmHg 100%
18:00 -3°C° 0 mm 2 mps 717 mmHg 100%
19:00 -3°C° 0 mm 2 mps 717 mmHg 100%
20:00 -4°C° 0 mm 3 mps 717 mmHg 100%
21:00 -5°C° 0 mm 3 mps 717 mmHg 100%
22:00 -4°C° 0 mm 2 mps 717 mmHg 100%
23:00 -5°C° 0 mm 2 mps 717 mmHg 100%
Show more